Location: Kielce
(50.8833°N, 20.6167°E)
Time: 20:43:02
(UTC+02:00)

SR - Pass Details

Date: 20 April 2021
Orbit: 573 x 882 km, 66.7° (Epoch: 08 May)

Event Time Altitude Azimuth Distance (km) Brightness Sun altitude
Rises 08:34:35 0° 216° (SW) 3,332 ? 27.4°
Reaches altitude 10° 08:36:58 10° 217° (SW) 2,439 ? 27.8°
Maximum altitude 08:42:41 87° 306° (NW) 874 ? 28.7°
Drops below altitude 10° 08:48:40 10° 37° (NE) 2,549 ? 29.6°
Sets 08:51:11 0° 38° (NE) 3,491 ? 29.9°
